Tracking 30986 objects as of 9-Jul-2025
HD Live streaming from Space Station
objects crossing your sky now

CZ-6A DEB

Track CZ-6A DEB now!
10-day predictions


NORAD ID: 54525
Int'l Code: 2022-151KD
Perigee: 833.3 km
Apogee: 931.8 km
Inclination: 98.8 °
Period: 102.5 minutes
Semi major axis: 7253 km
RCS: Unknown
Launch date: November 11, 2022
Source: People's Republic of China (PRC)
Launch site: Taiyaun Space Center, China (TSC)

Note: This is SATELLITE DEBRIS
Your satellite tracking list
Your tracking list is empty




NASA's NSSDC Master Catalog

Two Line Element Set (TLE):
1 54525U 22151KD  25189.93295661 -.00000056  00000-0 -76018-5 0  9998
2 54525  98.8302 182.8217 0067905 258.0936 101.2612 14.05324250135932
Source of the keplerian elements: AFSPC